GFSGL_250_rhum_255.txt.gz
RH
100 100 100 100 100 100 100 100 100 100 90 74 74 72 86 77 78 100 100 100 100 99 97 92 100 100 100 100 97 100 100 100 100 100 94 85 100 98 100 100 100 66 60
73 95 100 100 100 100 100 100 100 100 100 100 86 66 67 73 78 100 100 100 100 100 100 100 100 100 100 100 94 100 100 100 100 100 100 100 83 98 100 100 82 73 69
100 72 70 97 100 100 100 100 100 100 100 100 100 88 80 66 75 99 100 100 98 100 100 100 100 100 98 100 93 88 97 100 90 89 100 100 86 95 100 96 100 64 60
100 100 80 54 58 73 98 100 100 100 100 100 100 100 95 87 72 69 100 100 89 78 98 100 100 100 100 100 100 100 100 99 100 98 79 97 100 90 86 86 87 100 40
100 100 100 100 97 78 58 66 100 100 100 92 78 92 100 100 88 61 85 100 100 100 68 78 100 100 100 100 100 100 100 100 99 100 100 100 100 98 100 100 100 74 83
100 100 100 100 100 100 100 100 79 90 97 100 86 73 67 73 88 100 72 82 92 83 94 100 83 91 89 100 100 100 100 100 100 100 100 100 100 100 100 82 100 100 100
99 100 100 100 90 98 100 100 100 100 100 99 99 89 98 86 60 75 90 96 90 82 72 75 92 98 92 100 100 100 99 87 92 100 100 100 100 100 100 100 100 100 93
84 97 99 100 100 100 100 98 94 90 95 98 98 93 100 88 83 100 94 88 73 62 70 70 56 58 85 84 89 84 98 100 100 100 100 100 100 100 100 100 96 97 100
62 87 90 82 84 90 92 97 100 100 95 93 82 74 76 71 66 64 83 94 95 87 94 90 85 88 91 97 99 100 100 100 100 96 100 94 91 94 94 88 78 96 99
16 29 53 68 75 76 78 75 74 73 78 81 74 78 87 95 89 70 55 51 55 62 66 89 93 99 98 91 91 95 91 81 80 81 83 80 71 73 75 78 93 100 100
16 15 15 16 18 22 25 33 43 54 54 68 86 88 94 89 83 76 79 76 79 76 70 56 52 57 67 76 77 72 78 90 74 86 88 91 92 84 93 100 100 100 97
16 16 16 14 14 14 15 14 17 16 21 25 29 38 56 65 73 95 94 87 80 82 91 90 86 84 80 86 84 82 95 100 100 100 100 100 100 100 100 100 96 93 91
14 15 15 17 18 17 18 18 17 18 17 13 12 13 16 17 15 15 15 21 29 43 59 72 79 86 92 94 99 97 96 93 88 88 78 72 68 73 71 65 78 100 100
9 8 9 12 14 16 16 16 15 16 16 16 17 18 17 15 13 14 14 14 13 14 15 15 16 21 25 26 30 30 38 37 38 48 50 43 38 41 44 56 62 66 82
9 9 8 8 8 8 9 12 14 17 17 16 15 14 14 16 17 15 14 14 15 15 15 15 16 20 20 19 19 17 17 18 20 20 20 18 21 24 27 34 46 46 43
7 7 7 8 8 9 9 9 9 9 10 10 12 12 13 14 16 16 15 13 13 13 13 15 17 16 16 16 17 19 19 22 23 18 18 18 19 17 18 18 19 26 25
6 6 7 7 7 7 7 8 8 8 8 9 8 9 10 10 10 10 10 10 9 10 11 12 12 11 12 13 12 13 13 13 14 15 16 17 18 17 16 15 20 23 22
6 6 6 6 6 6 6 6 7 7 7 6 6 6 6 6 7 8 9 8 9 9 10 9 8 8 9 10 10 9 10 10 11 12 14 15 17 18 17 18 19 22 22
7 6 6 7 6 6 6 6 6 6 7 7 6 6 6 6 6 6 5 5 6 6 6 6 6 6 6 7 8 9 9 10 10 12 13 13 14 14 15 15 17 20 22
7 7 7 7 7 7 6 6 6 6 6 6 5 5 4 4 5 5 5 5 5 5 5 5 4 5 4 4 5 5 6 6 8 9 11 12 12 13 14 16 17 20 20
7 8 8 7 7 6 6 6 6 6 6 6 6 5 5 5 5 5 5 5 5 5 5 5 5 5 5 5 5 5 6 6 6 7 7 8 9 12 14 15 18 20 22
9 8 8 9 9 8 8 8 8 8 7 6 5 4 4 4 5 5 4 4 4 3 3 3 3 4 4 4 4 4 5 5 6 8 8 8 9 10 11 16 19 21 23
10 10 11 12 13 13 12 11 10 9 8 7 6 6 6 5 5 4 4 4 4 4 3 4 5 5 5 4 4 5 6 6 7 7 8 9 10 10 11 13 18 23 32
12 14 15 15 14 14 12 11 10 8 6 6 6 6 5 5 5 4 4 5 5 4 4 4 6 6 5 6 6 6 6 8 8 7 8 10 10 10 11 13 15 28 37
16 14 14 14 14 13 12 11 9 7 6 5 4 4 4 4 4 4 4 4 5 5 4 4 5 6 7 9 8 7 8 8 9 9 11 11 11 11 12 15 22 28 44
16 15 14 12 13 14 14 11 7 7 6 5 4 4 4 4 4 4 4 4 4 4 5 5 5 6 7 7 7 8 10 12 10 10 11 11 12 13 14 20 36 44 52

GFSGL_250_rhum_258.txt.gz
RH
100 95 100 95 92 93 98 100 97 100 100 100 78 53 50 54 57 75 85 100 98 100 100 94 97 98 95 98 72 100 100 100 100 100 96 99 96 100 100 100 100 100 100
100 100 100 99 100 100 100 100 100 93 93 100 100 100 77 52 56 62 66 77 100 94 93 100 100 100 100 98 90 98 100 99 88 99 100 91 93 93 96 96 100 100 100
100 100 100 100 100 98 100 100 100 100 94 100 100 100 100 100 91 74 78 86 100 100 100 90 100 100 100 100 96 100 100 100 98 100 100 100 96 79 82 84 71 78 73
100 100 100 100 100 100 88 100 100 100 100 100 98 100 100 100 95 85 88 91 97 100 99 100 100 100 100 100 100 85 100 100 99 96 100 96 74 99 97 100 100 100 78
100 100 100 100 100 100 100 100 100 100 100 100 100 100 100 100 100 87 99 85 89 100 100 97 93 98 100 100 100 100 99 100 100 98 100 100 100 100 100 100 100 100 100
80 100 100 100 100 100 100 100 84 100 100 100 100 100 100 100 98 100 100 96 70 69 77 87 91 87 85 100 100 100 96 96 100 100 100 100 100 100 100 100 100 100 100
51 72 78 78 79 90 95 90 82 79 82 95 98 100 100 100 100 100 97 94 99 100 85 78 78 74 89 95 96 99 100 100 100 100 100 100 100 100 100 100 100 100 100
46 36 39 51 63 72 81 86 83 78 70 62 67 74 69 64 66 76 96 94 83 86 90 96 87 80 69 78 83 75 68 85 100 100 97 92 99 99 95 100 100 100 100
18 21 21 20 21 24 32 48 66 76 82 82 78 78 74 75 66 58 63 74 84 86 84 73 74 68 63 58 59 68 89 68 82 88 100 100 100 100 100 100 100 100 98
11 12 16 15 14 18 24 30 43 52 61 62 70 72 73 75 77 67 65 68 67 90 96 83 75 80 94 92 80 72 87 85 99 100 100 100 100 86 75 99 100 99 95
13 12 11 12 13 13 12 14 20 24 29 31 44 62 69 72 83 78 62 68 64 71 73 81 93 95 85 84 83 73 76 85 75 62 60 63 72 77 78 92 91 100 100
12 13 13 13 13 11 12 13 14 14 14 16 14 22 32 43 55 92 72 70 76 76 77 80 85 88 81 78 85 93 88 85 90 79 76 78 77 86 88 98 100 100 100
8 10 12 13 12 12 12 13 13 12 13 14 15 14 14 12 15 22 31 33 27 30 34 34 40 52 60 75 86 94 100 99 96 94 94 93 91 98 100 100 100 100 100
8 8 8 8 10 12 13 12 12 14 14 13 13 14 15 16 15 15 15 15 15 15 14 16 16 17 19 21 22 24 25 26 25 26 28 36 51 54 69 75 76 67 58
7 7 7 8 8 8 8 9 10 11 12 12 12 13 14 16 16 15 15 14 14 14 15 15 15 15 16 15 15 16 17 18 18 18 19 19 19 20 21 22 23 23 23
6 6 6 6 7 7 8 8 9 9 10 10 10 11 11 12 13 14 15 14 12 12 12 13 15 17 19 17 13 12 13 13 14 15 16 17 17 17 17 19 20 18 18
5 5 6 6 7 7 7 7 8 8 8 9 10 10 12 13 13 14 14 13 11 11 11 13 14 15 13 12 11 11 10 10 10 11 12 12 13 13 14 15 17 20 22
5 5 5 5 6 6 7 6 7 7 7 7 8 8 8 8 9 10 11 11 10 10 10 10 11 11 10 9 9 9 9 9 8 9 10 11 11 12 12 13 14 15 17
6 6 6 6 6 6 6 6 6 7 7 7 7 7 8 8 8 8 8 8 8 7 7 7 7 7 7 7 7 7 7 7 7 7 7 7 8 8 9 11 12 12 14
7 8 8 7 7 6 6 6 6 6 6 7 7 7 6 6 6 6 6 6 6 6 6 6 7 7 6 7 7 7 7 8 8 7 7 7 7 7 7 8 7 10 10
7 7 8 8 7 7 7 7 7 6 6 5 5 5 5 5 5 5 5 6 6 6 6 6 6 6 7 7 8 8 9 8 8 8 8 8 8 8 8 8 9 9 11
7 7 7 8 8 8 7 7 7 6 6 6 6 6 6 5 5 6 6 7 6 6 7 7 6 6 6 6 7 8 7 7 7 6 6 6 7 7 8 9 10 10 10
8 8 8 8 8 8 8 9 9 9 9 8 7 6 7 7 6 5 5 5 5 5 5 5 5 5 6 7 8 8 7 7 7 6 6 6 6 6 7 8 9 9 10
8 9 9 9 9 12 12 11 10 9 7 6 7 7 6 6 5 4 4 4 4 4 4 4 5 5 5 6 7 7 8 9 8 8 7 7 8 9 9 10 10 11 11
9 10 10 11 14 14 13 12 10 8 7 8 6 6 5 5 4 4 4 4 4 4 4 5 5 6 6 6 7 8 9 8 9 8 9 10 11 11 11 12 12 12 13
10 11 12 15 15 14 14 12 10 9 8 6 6 6 5 4 4 4 4 4 4 4 4 4 5 5 6 7 8 8 8 9 10 10 11 11 11 11 11 12 14 15 15

GFSGL_250_rhum_264.txt.gz
RH
100 100 93 81 85 90 86 100 97 83 94 100 97 90 94 100 97 88 98 94 84 79 76 84 98 100 100 100 94 100 100 100 100 100 100 100 100 100 100 100 100 98 100
68 99 100 100 100 100 96 95 100 100 100 100 100 100 100 97 100 100 100 100 92 100 100 100 100 100 98 90 82 81 84 90 89 82 96 100 99 96 100 100 100 100 100
21 42 91 100 100 100 100 100 100 100 100 100 100 100 100 100 99 83 93 80 88 95 100 100 96 93 88 91 87 65 69 74 72 84 88 100 100 90 100 100 100 100 100
12 17 26 56 100 100 100 100 100 100 100 97 100 100 100 100 100 100 93 81 85 88 90 92 84 94 89 95 93 99 100 97 85 86 90 95 100 100 100 88 70 80 95
13 13 12 16 33 90 100 100 100 100 100 100 100 100 100 100 100 100 100 91 81 80 89 82 82 76 92 83 96 90 100 100 100 100 95 98 100 96 90 95 96 99 100
15 12 12 11 10 14 28 73 99 100 100 100 100 100 100 96 89 72 90 100 97 90 81 61 57 62 71 70 81 78 78 66 84 81 97 94 74 87 97 100 100 100 100
14 14 12 11 11 10 10 12 21 36 56 92 100 100 100 100 100 99 88 86 91 94 100 98 90 89 83 100 93 100 78 75 80 71 75 81 87 100 100 100 100 98 91
11 12 12 11 10 10 10 9 10 13 19 29 49 91 100 100 100 100 100 100 100 100 100 100 100 100 100 100 91 99 99 96 96 97 100 100 99 100 100 99 100 98 88
11 12 11 11 10 10 9 9 9 10 9 12 21 28 54 78 98 100 100 100 100 100 96 99 100 100 96 97 95 100 100 100 94 99 100 96 100 99 89 94 85 81 85
10 10 11 12 12 10 9 9 8 9 9 10 10 14 31 41 47 55 78 97 100 100 100 100 91 80 82 83 100 100 100 100 100 100 100 100 100 100 100 100 100 100 100
11 10 10 10 10 11 10 9 9 8 8 8 8 9 9 9 15 28 41 46 48 55 62 77 70 86 85 89 99 100 100 100 100 100 100 100 100 100 100 100 100 100 100
12 10 9 8 9 10 10 10 10 10 9 9 8 9 9 9 9 10 10 11 11 15 24 40 52 61 65 79 87 88 91 96 100 100 100 100 100 100 100 87 72 91 99
12 10 8 9 8 7 7 8 8 8 9 10 10 9 8 8 9 9 9 8 10 10 12 13 15 18 26 31 38 46 64 71 87 83 87 64 51 41 30 35 38 51 41
12 9 7 6 7 7 6 7 7 7 7 7 7 8 9 9 8 8 8 8 8 8 9 10 10 12 11 12 16 16 17 21 19 17 16 18 18 15 17 18 18 16 16
12 10 8 6 6 6 6 6 6 6 6 6 6 6 7 7 7 8 8 8 9 9 10 11 11 12 12 12 12 12 12 12 12 12 13 15 15 14 14 15 17 19 20
11 9 8 6 6 5 5 5 5 5 5 5 6 6 5 6 6 7 7 8 8 9 9 10 11 11 12 13 14 13 14 14 13 14 14 15 15 16 18 19 18 20 21
10 8 7 6 5 4 4 4 4 4 4 4 4 5 6 7 6 6 6 6 6 6 7 8 8 8 8 10 12 14 14 14 12 14 15 15 15 15 16 16 16 14 16
10 7 6 6 5 4 4 4 4 4 4 4 4 4 5 5 6 6 6 6 6 6 6 6 6 6 7 8 9 10 10 10 10 11 10 11 12 12 11 11 12 12 14
9 7 6 5 4 4 4 3 4 4 4 4 4 4 4 5 5 4 4 5 5 5 5 5 5 5 5 6 6 6 7 8 9 10 10 10 10 10 10 11 11 10 10
10 7 6 5 4 4 4 4 4 4 5 5 5 5 4 5 5 4 4 4 5 5 4 4 4 5 5 5 5 5 6 7 7 8 8 8 8 9 10 10 9 9 8
10 7 5 5 4 4 4 4 5 6 6 6 6 6 6 6 6 6 5 5 5 4 4 4 5 5 5 6 6 6 7 7 7 8 8 8 8 9 8 7 7 6 6
10 8 6 5 4 4 5 6 7 7 7 6 6 7 6 6 6 6 7 7 6 6 5 4 4 4 4 4 5 5 6 5 5 5 6 7 7 6 7 7 7 7 8
10 8 6 5 4 5 6 7 8 8 7 7 7 6 6 7 8 7 6 5 6 6 6 6 5 5 4 5 5 5 6 6 7 7 9 9 9 10 10 9 8 9 10
12 8 6 5 5 5 8 8 9 8 8 7 8 9 9 8 7 6 6 6 6 6 5 5 6 6 6 6 7 8 8 8 8 9 10 10 11 11 9 8 9 10 10
12 8 6 5 5 6 9 10 9 8 9 11 11 10 8 7 6 6 6 5 5 5 5 5 5 5 5 6 6 6 6 7 8 8 8 10 11 9 8 9 11 12 14
11 8 6 6 6 7 10 10 10 10 12 11 10 9 9 8 6 6 6 5 5 4 4 4 4 4 4 5 5 6 6 7 8 8 8 9 9 9 10 13 17 17 15

GFSGL_250_rhum_267.txt.gz
RH
12 26 69 69 64 86 66 59 64 52 97 100 100 99 96 74 67 93 100 96 99 92 100 100 100 96 97 94 93 100 100 87 82 100 100 100 100 100 100 100 100 100 100
9 12 21 74 85 81 83 71 79 60 62 74 71 100 100 100 100 88 99 99 94 100 100 100 100 100 100 96 86 67 70 70 75 82 86 100 100 100 100 100 100 100 100
10 9 11 14 64 93 93 80 79 76 57 72 58 100 100 98 100 100 100 100 100 93 100 100 100 98 99 100 100 100 91 81 97 93 97 100 99 98 100 100 100 100 100
9 10 10 10 14 24 96 100 100 94 76 56 75 98 100 86 85 100 100 80 96 91 100 88 85 100 85 94 94 100 100 97 86 89 100 100 100 96 100 100 100 100 83
10 9 9 9 9 11 15 55 100 100 100 96 67 89 100 100 96 100 98 99 83 73 88 97 93 94 98 91 100 100 100 88 100 91 83 83 84 100 88 69 58 60 100
11 9 9 9 8 9 9 12 16 39 98 100 100 74 74 100 88 100 91 94 86 65 56 76 55 76 67 55 91 80 84 59 100 100 81 100 84 99 97 82 100 86 91
12 12 11 9 8 8 8 8 8 10 14 30 68 98 100 79 92 100 100 99 94 88 100 80 69 89 69 50 46 50 60 60 64 91 100 94 100 77 94 88 83 83 100
10 10 11 11 11 10 9 8 7 7 8 8 12 20 42 73 90 95 94 92 96 94 100 100 94 80 76 63 56 62 77 96 87 64 63 74 70 96 100 100 100 99 99
14 11 10 10 10 11 10 9 8 7 7 7 8 8 10 16 24 38 59 78 93 100 100 100 100 100 100 100 82 80 86 83 96 95 100 100 100 100 100 100 100 100 100
18 15 14 10 8 8 10 10 9 8 7 6 7 7 8 8 9 12 17 27 44 73 100 100 100 100 100 100 100 100 100 100 100 100 100 100 100 100 100 100 100 100 100
21 19 16 15 13 10 7 6 8 8 8 7 7 6 6 7 8 8 9 9 10 12 23 40 56 70 81 99 100 100 100 100 100 100 100 100 100 100 100 100 100 97 100
22 19 16 15 13 11 10 8 6 6 6 8 7 7 7 7 7 7 8 8 8 8 9 11 11 13 17 28 54 77 92 99 100 100 100 98 83 96 100 100 100 98 99
25 21 18 14 12 11 9 8 8 7 6 6 5 5 5 5 6 6 7 6 7 7 8 9 10 10 10 10 12 15 21 32 38 41 50 52 43 48 48 42 54 51 56
26 22 18 14 11 9 8 7 6 6 6 6 6 5 6 5 5 5 5 5 6 6 7 8 8 9 10 10 10 10 12 14 13 12 12 14 17 17 17 19 19 20 19
27 22 16 12 10 9 8 6 5 5 4 5 5 5 5 5 5 5 5 5 5 5 6 6 7 8 9 10 10 10 11 11 11 12 11 12 12 13 14 14 15 16 16
26 22 15 12 10 8 8 6 5 4 4 4 5 5 4 4 5 5 5 5 5 5 5 6 6 7 8 9 9 10 10 11 11 11 12 12 12 12 13 13 14 14 15
27 22 16 12 10 8 6 5 4 3 4 3 3 4 4 4 4 4 5 5 5 5 5 5 5 5 6 6 7 7 8 8 8 8 9 9 10 10 11 12 12 13 14
27 22 15 11 9 7 5 4 4 4 3 3 3 3 4 4 4 4 4 4 4 4 4 4 5 5 6 6 6 6 6 6 7 7 8 8 8 8 8 9 9 10 10
28 22 16 11 8 6 5 4 4 4 3 3 3 3 4 4 4 4 4 4 4 4 4 4 4 4 4 5 5 5 6 6 6 7 7 7 8 8 8 8 9 10 11
28 21 15 11 8 6 4 4 4 3 4 4 4 4 4 4 4 4 4 4 4 4 4 4 4 4 4 4 4 4 5 5 5 6 6 6 7 7 8 8 9 9 8
27 21 15 12 8 6 4 4 4 4 4 4 5 5 6 5 5 5 5 6 6 5 5 5 5 4 4 4 4 4 4 5 5 5 5 6 6 7 7 7 7 8 8
27 23 17 13 9 6 5 4 4 4 5 6 6 6 6 6 6 6 6 6 6 6 5 4 4 4 4 4 4 5 5 5 5 5 6 6 6 7 7 7 8 8 8
27 23 18 13 9 6 5 4 4 5 6 6 7 7 6 6 6 6 6 6 5 5 5 5 4 4 4 4 5 5 5 5 6 6 6 6 6 7 8 8 9 9 9
26 22 17 13 10 7 6 5 5 5 7 8 7 7 7 8 8 7 7 6 6 6 5 5 5 5 5 5 5 6 6 6 7 7 8 8 9 10 10 11 11 10 10
27 23 18 14 11 7 6 5 5 6 9 8 8 9 11 10 8 7 6 6 5 5 5 4 4 4 4 5 5 5 6 6 6 7 8 8 10 11 12 11 10 11 13
26 22 18 15 11 7 6 6 5 8 10 9 11 11 11 10 8 7 6 6 5 5 4 4 4 4 4 4 4 4 5 5 6 7 8 9 10 11 11 11 12 12 13